| time (UTC) | temp F | wind direction | speed MPH | gust MPH | rain 1hr in | rain 24hr in | rain mn in | humidity % | barometer mb |
| 20260510101533 | 70 | 9 | 0.0 | 7.0 | 0.00 | 0.55 | 0.00 | 65 | 1014.8 |
| 20260510100025 | 69 | 150 | 0.0 | 8.0 | 0.00 | 0.55 | 0.00 | 68 | 1014.7 |
| 20260510094525 | 68 | 122 | 1.0 | 3.0 | 0.00 | 0.55 | 0.00 | 69 | 1014.8 |
| 20260510093019 | 67 | 138 | 0.0 | 8.0 | 0.00 | 0.55 | 0.00 | 71 | 1014.8 |
| 20260510091617 | 67 | 69 | 0.0 | 12.0 | 0.00 | 0.55 | 0.00 | 72 | 1014.8 |
| 20260510090018 | 66 | 61 | 0.0 | 3.0 | 0.00 | 0.55 | 0.00 | 74 | 1014.8 |
| 20260510084516 | 65 | 53 | 0.0 | 3.0 | 0.00 | 0.55 | 0.00 | 75 | 1014.8 |
| 20260510083009 | 65 | 15 | 0.0 | 10.0 | 0.00 | 0.55 | 0.00 | 76 | 1014.7 |
| 20260510081510 | 64 | 40 | 0.0 | 2.0 | 0.00 | 0.55 | 0.00 | 78 | 1014.6 |
| 20260510080004 | 63 | 55 | 0.0 | 10.0 | 0.00 | 0.55 | 0.00 | 80 | 1014.7 |
| 20260510074504 | 63 | 67 | 0.0 | 3.0 | 0.00 | 0.55 | 0.00 | 81 | 1014.6 |
| 20260510073110 | 62 | 22 | 0.0 | 2.0 | 0.00 | 0.55 | 0.00 | 82 | 1014.6 |
| 20260510071556 | 61 | 81 | 0.0 | 10.0 | 0.00 | 0.55 | 0.00 | 82 | 1014.5 |
| 20260510070054 | 61 | 338 | 1.0 | 12.0 | 0.00 | 0.55 | 0.00 | 82 | 1014.6 |
| 20260510064553 | 60 | 157 | 0.0 | 3.0 | 0.00 | 0.56 | 0.00 | 83 | 1014.6 |
| 20260510063051 | 59 | 258 | 1.0 | 8.0 | 0.00 | 0.56 | 0.00 | 83 | 1014.5 |
| 20260510061546 | 58 | 105 | 0.0 | 9.0 | 0.00 | 0.56 | 0.00 | 84 | 1014.4 |
| 20260510060042 | 58 | 266 | 1.0 | 10.0 | 0.00 | 0.56 | 0.00 | 85 | 1014.4 |
| 20260510054540 | 57 | 237 | 0.0 | 7.0 | 0.00 | 0.56 | 0.00 | 86 | 1014.4 |
| 20260510053037 | 56 | 306 | 1.0 | 9.0 | 0.00 | 0.56 | 0.00 | 86 | 1014.3 |
| 20260510051537 | 56 | 254 | 0.0 | 7.0 | 0.00 | 0.56 | 0.00 | 86 | 1014.4 |
| 20260510050042 | 55 | 22 | 0.0 | 0.0 | 0.00 | 0.56 | 0.00 | 86 | 1014.4 |
| 20260510044538 | 55 | 53 | 0.0 | 4.0 | 0.00 | 0.56 | 0.00 | 86 | 1014.4 |
| 20260510043035 | 55 | 315 | 0.0 | 4.0 | 0.00 | 0.56 | 0.00 | 86 | 1014.5 |
| 20260510041634 | 55 | 329 | 0.0 | 7.0 | 0.00 | 0.56 | 0.00 | 86 | 1014.4 |
| 20260510040035 | 55 | 273 | 0.0 | 8.0 | 0.00 | 0.56 | 0.00 | 87 | 1014.3 |
| 20260510034532 | 54 | 273 | 1.0 | 7.0 | 0.00 | 0.56 | 0.00 | 88 | 1014.5 |
| 20260510033031 | 54 | 323 | 0.0 | 8.0 | 0.00 | 0.56 | 0.00 | 89 | 1014.5 |
| 20260510031530 | 54 | 323 | 0.0 | 0.0 | 0.00 | 0.56 | 0.00 | 89 | 1014.6 |
| 20260510030030 | 54 | 300 | 0.0 | 0.0 | 0.00 | 0.56 | 0.00 | 88 | 1014.6 |
| 20260510024529 | 54 | 294 | 0.0 | 0.0 | 0.00 | 0.56 | 0.00 | 88 | 1014.7 |
| 20260510023031 | 54 | 294 | 0.0 | 0.0 | 0.00 | 0.56 | 0.00 | 88 | 1014.9 |
| 20260510021530 | 55 | 296 | 0.0 | 0.0 | 0.00 | 0.56 | 0.00 | 87 | 1014.9 |
| 20260510020026 | 55 | 292 | 3.0 | 5.0 | 0.00 | 0.56 | 0.00 | 87 | 1014.9 |
| 20260510014525 | 55 | 294 | 3.0 | 5.0 | 0.00 | 0.65 | 0.00 | 86 | 1014.7 |
| 20260510013024 | 55 | 288 | 3.0 | 6.0 | 0.00 | 0.65 | 0.00 | 86 | 1014.5 |
| 20260510011523 | 56 | 296 | 3.0 | 8.0 | 0.00 | 0.65 | 0.00 | 86 | 1014.6 |
| 20260510010021 | 56 | 292 | 3.0 | 8.0 | 0.00 | 0.65 | 0.00 | 86 | 1014.7 |
| 20260510004522 | 55 | 275 | 3.0 | 8.0 | 0.00 | 0.65 | 0.00 | 87 | 1014.8 |
| 20260510003019 | 55 | 281 | 4.0 | 8.0 | 0.00 | 0.65 | 0.00 | 88 | 1015.0 |
| 20260510001516 | 55 | 285 | 3.0 | 8.0 | 0.00 | 0.65 | 0.00 | 89 | 1015.0 |
| 20260510000013 | 55 | 323 | 3.0 | 10.0 | 0.00 | 0.65 | 0.00 | 89 | 1015.4 |
| 20260509234528 | 55 | 240 | 4.0 | 11.0 | 0.00 | 0.65 | 0.00 | 89 | 1015.5 |
| 20260509233011 | 55 | 317 | 3.0 | 7.0 | 0.00 | 0.65 | 0.00 | 89 | 1015.6 |
| 20260509231515 | 55 | 285 | 0.0 | 9.0 | 0.00 | 0.65 | 0.00 | 88 | 1015.7 |
| 20260509230007 | 56 | 293 | 4.0 | 10.0 | 0.00 | 0.65 | 0.00 | 87 | 1015.8 |
| 20260509224514 | 56 | 273 | 0.0 | 0.0 | 0.00 | 0.65 | 0.00 | 86 | 1015.5 |
| 20260509223004 | 56 | 273 | 0.0 | 0.0 | 0.00 | 0.65 | 0.00 | 88 | 1015.7 |
| 20260509221502 | 56 | 273 | 0.0 | 0.0 | 0.00 | 0.65 | 0.00 | 88 | 1015.6 |
| 20260509220059 | 56 | 269 | 0.0 | 0.0 | 0.00 | 0.65 | 0.00 | 88 | 1015.7 |
| 20260509214559 | 55 | 308 | 0.0 | 0.0 | 0.00 | 0.65 | 0.65 | 88 | 1015.8 |
| 20260509213059 | 55 | 308 | 0.0 | 0.0 | 0.00 | 0.65 | 0.65 | 89 | 1015.6 |
| 20260509211558 | 55 | 308 | 0.0 | 0.0 | 0.00 | 0.65 | 0.65 | 89 | 1015.5 |
| 20260509204606 | 56 | 308 | 0.0 | 0.0 | 0.00 | 0.65 | 0.65 | 89 | 1015.3 |
| 20260509203110 | 55 | 309 | 0.0 | 0.0 | 0.00 | 0.65 | 0.65 | 89 | 1015.1 |
| 20260509201556 | 55 | 304 | 0.0 | 0.0 | 0.00 | 0.65 | 0.65 | 89 | 1014.9 |
| 20260509200056 | 55 | 318 | 0.0 | 0.0 | 0.00 | 0.65 | 0.65 | 90 | 1014.7 |
| 20260509194555 | 55 | 302 | 0.0 | 0.0 | 0.00 | 0.65 | 0.65 | 90 | 1014.4 |
| 20260509193055 | 55 | 292 | 0.0 | 0.0 | 0.00 | 0.65 | 0.65 | 90 | 1014.2 |
| 20260509191554 | 55 | 285 | 0.0 | 0.0 | 0.00 | 0.65 | 0.65 | 90 | 1014.1 |
| 20260509190056 | 55 | 285 | 0.0 | 3.0 | 0.00 | 0.65 | 0.65 | 90 | 1013.8 |
| 20260509184554 | 55 | 327 | 0.0 | 0.0 | 0.01 | 0.65 | 0.65 | 90 | 1013.4 |
| 20260509183054 | 55 | 288 | 0.0 | 0.0 | 0.01 | 0.65 | 0.65 | 90 | 1013.3 |
| 20260509181608 | 55 | 250 | 0.0 | 0.0 | 0.01 | 0.65 | 0.65 | 90 | 1013.2 |
| 20260509180112 | 55 | 13 | 0.0 | 2.0 | 0.02 | 0.65 | 0.65 | 90 | 1012.9 |
| 20260509174553 | 55 | 54 | 0.0 | 2.0 | 0.02 | 0.64 | 0.64 | 90 | 1012.7 |
| 20260509173107 | 55 | 32 | 0.0 | 8.0 | 0.05 | 0.64 | 0.64 | 90 | 1012.8 |
| 20260509171553 | 55 | 190 | 1.0 | 8.0 | 0.10 | 0.64 | 0.64 | 90 | 1012.7 |
| 20260509170053 | 54 | 17 | 1.0 | 12.0 | 0.15 | 0.63 | 0.63 | 90 | 1012.6 |
| 20260509164547 | 55 | 269 | 4.0 | 11.0 | 0.18 | 0.62 | 0.62 | 90 | 1013.3 |
| 20260509163044 | 55 | 17 | 1.0 | 4.0 | 0.20 | 0.59 | 0.59 | 90 | 1014.2 |
| 20260509161555 | 56 | 24 | 0.0 | 1.0 | 0.19 | 0.54 | 0.54 | 90 | 1014.6 |
| 20260509160040 | 56 | 109 | 0.0 | 2.0 | 0.15 | 0.48 | 0.48 | 90 | 1015.2 |
| 20260509154539 | 57 | 101 | 0.0 | 2.0 | 0.12 | 0.43 | 0.43 | 90 | 1015.5 |
| 20260509153040 | 57 | 157 | 0.0 | 1.0 | 0.10 | 0.39 | 0.39 | 90 | 1015.3 |
| 20260509151540 | 57 | 150 | 0.0 | 0.0 | 0.14 | 0.35 | 0.35 | 90 | 1015.0 |
| 20260509150037 | 57 | 81 | 1.0 | 10.0 | 0.14 | 0.33 | 0.33 | 90 | 1012.5 |
| 20260509144535 | 57 | 38 | 5.0 | 12.0 | 0.16 | 0.31 | 0.31 | 90 | 1012.1 |
| 20260509143035 | 58 | 5 | 3.0 | 15.0 | 0.18 | 0.28 | 0.28 | 89 | 1012.7 |
| 20260509141538 | 58 | 101 | 3.0 | 14.0 | 0.10 | 0.20 | 0.20 | 88 | 1014.0 |
| 20260509140026 | 59 | 91 | 1.0 | 10.0 | 0.09 | 0.19 | 0.19 | 88 | 1014.8 |
| 20260509134531 | 60 | 76 | 0.0 | 3.0 | 0.05 | 0.15 | 0.15 | 86 | 1015.3 |
| 20260509133025 | 60 | 104 | 0.0 | 1.0 | 0.01 | 0.11 | 0.11 | 83 | 1015.4 |
| 20260509131528 | 60 | 328 | 0.0 | 4.0 | 0.00 | 0.10 | 0.10 | 81 | 1015.1 |
| 20260509130025 | 60 | 18 | 1.0 | 13.0 | 0.00 | 0.10 | 0.10 | 82 | 1014.2 |
| 20260509124522 | 60 | 83 | 0.0 | 13.0 | 0.00 | 0.10 | 0.10 | 84 | 1013.7 |
| 20260509123021 | 60 | 324 | 2.0 | 13.0 | 0.00 | 0.10 | 0.10 | 85 | 1014.0 |
| 20260509121520 | 59 | 355 | 2.0 | 14.0 | 0.01 | 0.10 | 0.10 | 87 | 1014.4 |
| 20260509120021 | 59 | 37 | 0.0 | 8.0 | 0.01 | 0.10 | 0.10 | 88 | 1015.1 |
| 20260509114514 | 60 | 39 | 0.0 | 2.0 | 0.01 | 0.10 | 0.10 | 87 | 1015.8 |
| 20260509113015 | 60 | 82 | 2.0 | 12.0 | 0.01 | 0.10 | 0.10 | 84 | 1016.1 |
| 20260509111514 | 62 | 67 | 7.0 | 16.0 | 0.00 | 0.09 | 0.09 | 81 | 1016.2 |
| 20260509110011 | 62 | 110 | 2.0 | 9.0 | 0.00 | 0.09 | 0.09 | 81 | 1015.8 |
| 20260509104510 | 61 | 73 | 5.0 | 14.0 | 0.00 | 0.09 | 0.09 | 82 | 1016.0 |
| 20260509103008 | 61 | 88 | 4.0 | 13.0 | 0.00 | 0.09 | 0.09 | 85 | 1016.1 |